User: anonymous   Login
Location: Caltech
(34.1382°N, 118.1253°W)
Time: 04:03:43
(UTC-07:00)
Language:

Cosmos 1758 Rocket - Orbit

View from above orbital plane
View from above orbital plane
View from above satellite
View from above satellite

Ground track
Ground track

The orbit data is extracted from the following two-line orbital elements,

1 16792U 86046B   16179.52031397 +.00000102 +00000-0 +95289-5 0  9994
2 16792 082.4817 176.1104 0024909 024.3729 093.3454 14.83073784601222
Epoch (UTC): 27 June 2016 12:29:15
Eccentricity: 0.0024909
inclination: 82.4817°
perigee height: 602 km
apogee height: 637 km
right ascension of ascending node: 176.1104°
argument of perigee: 24.3729°
revolutions per day: 14.83073784
mean anomaly at epoch: 93.3454°
orbit number at epoch: 60122

The dashed part of the orbit path shows where the satellite is in the earth's shadow,  

DLR